When you browse on this site, cookies collect data to enhance your experience and personalize the content and advertising you see.
Visit our Privacy Policy to learn more. By continuing to use the site, you agree to this use of cookies and data.
  • en France
  • Liste des pays
  • À 7 jours
  • Température de l'eau
  • Carte satellitaire
  • Carte météo
  • Widgets météo
  • user-avatar
    Se connecter

    Météo par heure à Ablis

    Ce jour, 26 Avril, Vendredi

    Heure Température Précipitation Vent Pression Humidité
    00:00 +5°C° 0 mm 3 m/s 743 mmHg 92%
    01:00 +5°C° 0 mm 3 m/s 744 mmHg 92%
    02:00 +4°C° 0 mm 3 m/s 744 mmHg 91%
    03:00 +4°C° 0 mm 3 m/s 744 mmHg 91%
    04:00 +5°C° 0 mm 3 m/s 744 mmHg 89%
    05:00 +5°C° 0 mm 3 m/s 744 mmHg 88%
    06:00 +5°C° 0 mm 3 m/s 745 mmHg 86%
    07:00 +8°C° 0 mm 3 m/s 745 mmHg 81%
    08:00 +10°C° 0 mm 3 m/s 746 mmHg 76%
    09:00 +12°C° 0 mm 4 m/s 746 mmHg 70%
    10:00 +13°C° 0.1 mm 4 m/s 746 mmHg 68%
    11:00 +14°C° 0.1 mm 4 m/s 746 mmHg 65%
    12:00 +15°C° 0.1 mm 4 m/s 746 mmHg 62%
    13:00 +15°C° 0.1 mm 4 m/s 746 mmHg 61%
    14:00 +17°C° 0.1 mm 4 m/s 747 mmHg 60%
    15:00 +16°C° 0.1 mm 5 m/s 747 mmHg 59%
    16:00 +15°C° 0.1 mm 4 m/s 747 mmHg 65%
    17:00 +14°C° 0.1 mm 4 m/s 747 mmHg 71%
    18:00 +13°C° 0.1 mm 4 m/s 748 mmHg 77%
    19:00 +12°C° 0.1 mm 4 m/s 748 mmHg 81%
    20:00 +11°C° 0.1 mm 3 m/s 749 mmHg 86%
    21:00 +10°C° 0.1 mm 3 m/s 749 mmHg 90%
    22:00 +10°C° 0.1 mm 4 m/s 749 mmHg 89%
    23:00 +8°C° 0.1 mm 5 m/s 749 mmHg 88%

    Demain, 27 Avril, Samedi

    Heure Température Précipitation Vent Pression Humidité
    00:00 +7°C° 0.1 mm 6 m/s 749 mmHg 87%
    01:00 +7°C° 0.1 mm 6 m/s 749 mmHg 89%
    02:00 +7°C° 0.1 mm 6 m/s 749 mmHg 90%
    03:00 +7°C° 0.1 mm 6 m/s 749 mmHg 91%
    04:00 +7°C° 0.2 mm 6 m/s 749 mmHg 89%
    05:00 +7°C° 0.2 mm 6 m/s 749 mmHg 87%
    06:00 +8°C° 0.2 mm 5 m/s 749 mmHg 85%
    07:00 +8°C° 0 mm 6 m/s 750 mmHg 79%
    08:00 +9°C° 0 mm 7 m/s 750 mmHg 72%
    09:00 +9°C° 0 mm 7 m/s 751 mmHg 66%
    10:00 +9°C° 0.2 mm 7 m/s 751 mmHg 64%
    11:00 +10°C° 0.2 mm 7 m/s 751 mmHg 63%
    12:00 +10°C° 0.2 mm 7 m/s 751 mmHg 62%
    13:00 +10°C° 0.2 mm 7 m/s 751 mmHg 61%
    14:00 +10°C° 0.2 mm 7 m/s 752 mmHg 61%
    15:00 +10°C° 0.2 mm 7 m/s 752 mmHg 60%
    16:00 +9°C° 0.2 mm 7 m/s 752 mmHg 64%
    17:00 +9°C° 0.2 mm 6 m/s 752 mmHg 69%
    18:00 +8°C° 0.2 mm 5 m/s 752 mmHg 73%
    19:00 +7°C° 0.1 mm 5 m/s 752 mmHg 75%
    20:00 +7°C° 0.1 mm 5 m/s 753 mmHg 77%
    21:00 +6°C° 0.1 mm 5 m/s 753 mmHg 79%
    22:00 +6°C° 0.1 mm 5 m/s 753 mmHg 81%
    23:00 +6°C° 0.1 mm 5 m/s 753 mmHg 82%

    Après-demain, 28 Avril, Dimanche

    Heure Température Précipitation Vent Pression Humidité
    00:00 +6°C° 0.1 mm 5 m/s 753 mmHg 84%
    01:00 +5°C° 0.1 mm 5 m/s 753 mmHg 84%
    02:00 +5°C° 0.1 mm 5 m/s 753 mmHg 85%
    03:00 +5°C° 0.1 mm 5 m/s 753 mmHg 85%
    04:00 +5°C° 0.1 mm 5 m/s 753 mmHg 86%
    05:00 +5°C° 0.1 mm 5 m/s 753 mmHg 86%
    06:00 +6°C° 0.1 mm 5 m/s 753 mmHg 86%
    07:00 +5°C° 0.2 mm 6 m/s 753 mmHg 83%
    08:00 +7°C° 0.2 mm 6 m/s 753 mmHg 79%
    09:00 +8°C° 0.2 mm 6 m/s 753 mmHg 76%
    10:00 +9°C° 0.2 mm 6 m/s 753 mmHg 73%
    11:00 +9°C° 0.2 mm 6 m/s 753 mmHg 70%
    12:00 +10°C° 0.2 mm 6 m/s 753 mmHg 67%
    13:00 +10°C° 0.1 mm 6 m/s 752 mmHg 68%
    14:00 +10°C° 0.1 mm 6 m/s 752 mmHg 68%
    15:00 +11°C° 0.1 mm 6 m/s 752 mmHg 68%
    16:00 +10°C° 0.2 mm 6 m/s 752 mmHg 72%
    17:00 +9°C° 0.2 mm 5 m/s 752 mmHg 76%
    18:00 +10°C° 0.2 mm 4 m/s 752 mmHg 81%
    19:00 +8°C° 0 mm 4 m/s 752 mmHg 85%
    20:00 +8°C° 0 mm 3 m/s 752 mmHg 89%
    21:00 +7°C° 0 mm 3 m/s 752 mmHg 93%
    22:00 +7°C° 0.1 mm 3 m/s 752 mmHg 94%
    23:00 +7°C° 0.1 mm 3 m/s 752 mmHg 95%

    29 Avril, Lundi

    Heure Température Précipitation Vent Pression Humidité
    00:00 +7°C° 0.1 mm 3 m/s 751 mmHg 95%
    01:00 +7°C° 0.1 mm 3 m/s 751 mmHg 96%
    02:00 +7°C° 0.1 mm 3 m/s 751 mmHg 96%
    03:00 +7°C° 0.1 mm 3 m/s 751 mmHg 96%
    04:00 +7°C° 0 mm 2 m/s 751 mmHg 96%
    05:00 +7°C° 0 mm 2 m/s 751 mmHg 95%
    06:00 +7°C° 0 mm 2 m/s 751 mmHg 94%
    07:00 +8°C° 0 mm 2 m/s 751 mmHg 86%
    08:00 +10°C° 0 mm 3 m/s 751 mmHg 78%
    09:00 +11°C° 0 mm 3 m/s 751 mmHg 71%
    10:00 +11°C° 0 mm 3 m/s 751 mmHg 69%
    11:00 +12°C° 0 mm 3 m/s 751 mmHg 68%
    12:00 +12°C° 0 mm 3 m/s 751 mmHg 66%
    13:00 +12°C° 0 mm 3 m/s 751 mmHg 66%
    14:00 +12°C° 0 mm 3 m/s 751 mmHg 66%
    15:00 +12°C° 0 mm 3 m/s 751 mmHg 66%
    16:00 +12°C° 0 mm 3 m/s 751 mmHg 69%
    17:00 +11°C° 0 mm 3 m/s 751 mmHg 72%
    18:00 +12°C° 0 mm 2 m/s 751 mmHg 75%
    19:00 +9°C° 0 mm 2 m/s 751 mmHg 79%
    20:00 +8°C° 0 mm 2 m/s 751 mmHg 83%
    21:00 +7°C° 0 mm 2 m/s 752 mmHg 87%
    22:00 +7°C° 0 mm 1 m/s 752 mmHg 89%
    23:00 +7°C° 0 mm 1 m/s 752 mmHg 90%

    30 Avril, Mardi

    Heure Température Précipitation Vent Pression Humidité
    00:00 +7°C° 0 mm 1 m/s 752 mmHg 91%
    01:00 +7°C° 0 mm 1 m/s 752 mmHg 91%
    02:00 +6°C° 0 mm 1 m/s 752 mmHg 92%
    03:00 +5°C° 0 mm 2 m/s 751 mmHg 92%
    04:00 +6°C° 0 mm 2 m/s 752 mmHg 91%
    05:00 +6°C° 0 mm 2 m/s 752 mmHg 90%
    06:00 +6°C° 0 mm 2 m/s 752 mmHg 89%
    07:00 +9°C° 0 mm 2 m/s 752 mmHg 81%
    08:00 +11°C° 0 mm 3 m/s 752 mmHg 72%
    09:00 +13°C° 0 mm 3 m/s 752 mmHg 64%
    10:00 +14°C° 0 mm 3 m/s 752 mmHg 59%
    11:00 +16°C° 0 mm 3 m/s 752 mmHg 54%
    12:00 +17°C° 0 mm 3 m/s 751 mmHg 49%
    13:00 +17°C° 0 mm 3 m/s 751 mmHg 49%
    14:00 +18°C° 0 mm 3 m/s 751 mmHg 49%
    15:00 +18°C° 0 mm 3 m/s 750 mmHg 48%
    16:00 +17°C° 0 mm 3 m/s 750 mmHg 53%
    17:00 +16°C° 0 mm 2 m/s 750 mmHg 59%
    18:00 +15°C° 0 mm 2 m/s 750 mmHg 64%
    19:00 +14°C° 0 mm 2 m/s 750 mmHg 67%
    20:00 +12°C° 0 mm 2 m/s 750 mmHg 70%
    21:00 +10°C° 0 mm 2 m/s 751 mmHg 72%
    22:00 +10°C° 0 mm 1 m/s 750 mmHg 76%
    23:00 +10°C° 0 mm 1 m/s 750 mmHg 79%

    1 Mai, Mercredi

    Heure Température Précipitation Vent Pression Humidité
    00:00 +9°C° 0 mm 1 m/s 750 mmHg 82%
    01:00 +9°C° 0 mm 1 m/s 750 mmHg 83%
    02:00 +9°C° 0 mm 1 m/s 749 mmHg 85%
    03:00 +8°C° 0 mm 1 m/s 749 mmHg 86%
    04:00 +9°C° 0 mm 1 m/s 749 mmHg 86%
    05:00 +9°C° 0 mm 1 m/s 749 mmHg 85%
    06:00 +10°C° 0 mm 1 m/s 749 mmHg 84%
    07:00 +12°C° 0 mm 1 m/s 749 mmHg 78%
    08:00 +14°C° 0 mm 1 m/s 749 mmHg 72%
    09:00 +16°C° 0 mm 1 m/s 749 mmHg 66%
    10:00 +17°C° 0 mm 2 m/s 748 mmHg 62%
    11:00 +18°C° 0 mm 2 m/s 748 mmHg 58%
    12:00 +19°C° 0 mm 2 m/s 748 mmHg 54%
    13:00 +20°C° 0 mm 1 m/s 748 mmHg 53%
    14:00 +20°C° 0 mm 1 m/s 747 mmHg 52%
    15:00 +21°C° 0 mm 1 m/s 747 mmHg 50%
    16:00 +20°C° 0 mm 1 m/s 746 mmHg 55%
    17:00 +17°C° 0 mm 0 m/s 746 mmHg 59%
    18:00 +17°C° 0 mm 0 m/s 746 mmHg 63%
    19:00 +16°C° 0 mm 1 m/s 746 mmHg 66%
    20:00 +14°C° 0 mm 1 m/s 746 mmHg 69%
    21:00 +13°C° 0 mm 1 m/s 745 mmHg 72%
    22:00 +13°C° 0 mm 1 m/s 745 mmHg 73%
    23:00 +13°C° 0 mm 1 m/s 745 mmHg 74%
    Voir plus